Regional Weather Roundup
Issued by NWS Portland, ME

Current Version | Previous Version | Text Only | Print | Product List | Glossary Off
Versions: 1 2 3 4 5 6 7 8 9 10 11 12 13 14 15 16 17 18 19 20 21 22 23 24 25 26 27 28 29 30 31 32 33 34 35 36 37 38 39 40 41 42 43 44 45 46 47 48 49 50
000 ASUS41 KGYX 170010 RWRGYX WEATHER ROUNDUP FOR MAINE AND NEW HAMPSHIRE NATIONAL WEATHER SERVICE GRAY ME 700 PM EST SAT FEB 16 2019 MEZ002-005-006-010-012-015-018-020-021-024-026-027-029-170100- MAINE CITY SKY/WX TMP DP RH WIND PRES REMARKS PORTLAND FAIR 33 19 56 NW9 29.85R 6HR MIN TEMP: 33; 6HR MAX TEMP: 39; SANFORD FAIR 31 18 58 W8 29.86R BAR HARBOR CLOUDY 31 20 63 VRB7 29.81R WISCASSET FAIR 31 18 58 CALM 29.85R 6HR MIN TEMP: 31; 6HR MAX TEMP: 39; ROCKLAND FAIR 31 18 58 W10G17 29.82R FRYEBURG FAIR 27 12 53 VRB6 29.86R 6HR MIN TEMP: 27; 6HR MAX TEMP: 37; LEWISTONAUBURN FAIR 28 16 60 NW12G22 29.85R WCI 18 AUGUSTA FAIR 27 13 55 NW16G28 29.85R WCI 15 6HR MIN TEMP: 27; 6HR MAX TEMP: 35; WATERVILLE FAIR 25 14 63 NW14 29.83R WCI 13 BANGOR FAIR 29 15 56 NW10 29.81R WCI 20 6HR MIN TEMP: 29; 6HR MAX TEMP: 35; GREENVILLE N/A 18 4 54 NW18G38 29.73R WCI 2 6HR MIN TEMP: 18; 6HR MAX TEMP: 27; MILLINOCKET CLOUDY 25 14 63 NW14G26 29.79R WCI 13 6HR MIN TEMP: 25; 6HR MAX TEMP: 33; 6HR PCP: TRACE; HOULTON FAIR 25 16 68 NW13G25 29.71R WCI 14 6HR MIN TEMP: 25; 6HR MAX TEMP: 31; 6HR PCP: TRACE; PRESQUE ISLE FLURRIES 25 19 78 W17G23 29.70R WCI 12 6HR MIN TEMP: 25; 6HR MAX TEMP: 32; 6HR PCP: TRACE; FRENCHVILLE FLURRIES 20 11 68 NW16G28 29.67R WCI 6 6HR MIN TEMP: 20; 6HR MAX TEMP: 31; 6HR PCP: TRACE; CARIBOU FLURRIES 26 17 68 W8G17 29.67R 6HR MIN TEMP: 26; 6HR MAX TEMP: 32; 6HR PCP: TRACE; $$ NHZ002-005-008-009-011-012-014-170100- NEW HAMPSHIRE CITY SKY/WX TMP DP RH WIND PRES REMARKS PORTSMOUTH CLEAR 34 17 49 W10 29.85R ROCHESTER FAIR 32 18 56 NW7 29.86R 6HR MIN TEMP: 31; 6HR MAX TEMP: 37; NASHUA FAIR 33 17 51 NW9 29.89R MANCHESTER FAIR 34 16 47 NW7 29.88R 6HR MIN TEMP: 34; 6HR MAX TEMP: 39; CONCORD FAIR 31 17 56 NW14G23 29.88R 6HR MIN TEMP: 31; 6HR MAX TEMP: 36; LACONIA FAIR 28 15 58 W6G17 29.88 PLYMOUTH FAIR 27 13 56 NW9 29.89R BERLIN CLOUDY 19 9 65 VRB6 29.88R 6HR MIN TEMP: 19; 6HR MAX TEMP: 30; 6HR PCP: TRACE; WHITEFIELD FAIR 20 9 62 NW13 29.91R WCI 7 6HR MIN TEMP: 21; 6HR MAX TEMP: 31; 6HR PCP: TRACE; JAFFREY FAIR 30 17 58 CALM 29.85R 6HR MIN TEMP: 30; 6HR MAX TEMP: 35; KEENE FAIR 28 19 69 CALM 29.89R LEBANON FAIR 28 10 46 N9 29.93R 6HR MIN TEMP: 28; 6HR MAX TEMP: 37; MT WASHINGTON SNOWSHWR -2 -2 100 NW56 N/A VSB 1/16WCI -36 6HR MIN TEMP: -3; 6HR MAX TEMP: 8; 6HR PCP: 0.05; $$ VTZ005-007-008-170100- VERMONT CITY SKY/WX TMP DP RH WIND PRES REMARKS ST JOHNSBURY N/A 20 9 62 MISG 29.94R MONTPELIER FAIR 19 9 65 NW14 29.96R WCI 6 BURLINGTON FAIR 22 9 57 N8 30.00R $$ MAZ007-012-024-CTZ003-RIZ002-NYZ038-NYZ072-170100- SOUTHERN NEW ENGLAND AND NY CITY SKY/WX TMP DP RH WIND PRES REMARKS BOSTON FAIR 38 18 44 NW14 29.88R WORCESTER FAIR 28 16 60 W15 29.86R WCI 16 NANTUCKET FAIR 31 25 78 NE3 29.85R PROVIDENCE FAIR 36 19 50 NW9 29.89R HARTFORD FAIR 31 16 54 NW13 29.94R ALBANY FAIR 27 13 55 W17 29.99R WCI 14 NEW YORK CITY FAIR 38 18 44 NW16 29.93R $$ ANZ081-ANZ082-ANZ150-NHZ014-MEZ023>029-170100- COASTAL MARINE OBSERVATIONS STATION/POSITION TIME TEMP WIND PRES WAVE AIR SEA DIR/SP/G HT/PER (UTC) (F) (DEG/KT/KT) (MB) (FT/S) MOUNT DESERT ROC 0000 34 290/ 23/ 26 1009.0R MATINICUS ROCK 0000 34 320/ 20/ 21 1009.1R ISLE OF SHOALS 0000 36 300/ 14/ 17 1011.0R JEFFREYS LEDGE 2338 41 N/A 4/ 4 CASHES LEDGE BUO 2350 36 40 1009.7R 4/ 8 $$ .............KEY.............. WCI - WIND CHILL TC - TEMPERATURE IN CELSIUS VSB - VISIBILITY IN MILES HX - HEAT INDEX FAIR- INDICATES FEW OR NO CLOUDS BELOW 12,000 FT, WITH NO SIGNIFICANT WEATHER AND/OR OBSTRUCTIONS TO VISIBILITY.

USA.gov is the U.S. government's official web portal to all federal, state and local government web resources and services.